Tracking 21076 objects as of 7-Aug-2020
HD Live streaming from Space Station
objects crossing your sky now

GB 1

Track GB 1 now!
10-day predictions
GB 1 is classified as:


NORAD ID: 14143
Int'l Code: 1983-056C
Perigee: 383.8 km
Apogee: 1,740.3 km
Inclination: 63.3 °
Period: 106.3 minutes
Semi major axis: 7433 km
RCS: Unknown
Launch date: June 9, 1983
Source: United States (US)
Launch site: AIR FORCE WESTERN TEST RANGE (AFWTR)
aabbcc
Your satellite tracking list
Your tracking list is empty




NASA's NSSDC Master Catalog

Two Line Element Set (TLE):
1 14143U 83056C   20220.53790296 +.00000580 +00000-0 +57409-4 0  9994
2 14143 063.2958 278.6438 0912514 093.1899 277.3802 13.54731063054581
Source of the keplerian elements: McCants